Temperature
15 15 15 15 16 16 16 16 16 16 16 16 16 16 16 16 16 16 16 16 16 16 15 16 16 15 15 15 15 15 15 15 15 15 15 15 15 15 15 15 15 15 15
15 15 15 15 15 16 16 16 16 16 16 16 16 16 16 16 16 16 16 16 16 15 15 15 15 15 15 15 15 15 15 15 15 15 14 14 14 15 15 15 15 15 15
15 15 15 15 15 15 15 16 16 16 15 15 15 15 16 16 16 16 16 16 16 15 15 15 15 15 15 15 15 15 15 15 15 14 14 14 14 14 14 14 14 15 15
15 15 15 15 15 15 15 15 15 15 15 15 15 15 15 16 16 15 16 16 15 15 15 15 15 15 15 15 15 14 14 14 14 14 14 14 14 14 14 14 14 14 14
15 15 15 15 15 15 15 15 15 15 15 15 15 15 15 15 15 15 15 15 15 15 15 15 15 15 15 15 14 14 14 14 14 14 14 14 14 14 14 14 14 14 14
14 14 14 14 14 14 14 14 15 15 15 15 15 15 15 15 15 15 15 15 15 15 15 15 15 15 15 14 14 14 14 14 14 14 13 13 14 14 14 13 14 14 14
14 14 14 14 14 14 14 14 14 15 15 15 15 15 15 15 15 15 15 15 15 15 15 15 15 14 14 14 14 14 14 13 13 13 13 13 13 13 13 13 13 13 13
14 14 13 14 14 14 14 14 14 14 14 15 15 15 15 15 15 15 15 15 15 15 15 15 14 14 14 14 14 13 13 13 13 13 13 13 13 13 13 13 13 13 13
13 13 13 13 13 13 14 14 14 14 14 14 14 15 15 15 14 14 14 14 14 14 14 14 14 14 14 13 13 13 13 13 13 13 13 13 13 13 13 13 13 13 13
13 13 13 13 13 13 13 13 13 13 14 14 14 14 14 14 14 14 14 14 14 14 14 14 14 14 13 13 13 13 13 13 13 13 13 13 12 12 12 12 12 12 12
12 12 12 12 13 13 13 13 13 13 13 13 14 14 14 14 14 14 14 14 14 14 14 14 14 13 13 13 13 13 13 13 13 13 13 12 12 12 12 12 12 12 12
12 12 12 12 12 12 12 13 13 13 13 13 13 13 13 13 13 14 14 14 14 14 13 13 13 13 13 13 13 13 13 13 12 12 12 12 12 12 12 12 12 11 11
11 11 11 11 11 12 12 12 12 13 13 13 13 13 13 13 13 13 13 13 13 13 13 13 13 13 13 13 13 13 12 12 12 12 12 12 12 12 11 11 11 11 11
11 11 11 11 11 11 12 12 12 12 12 13 13 13 13 13 13 13 13 13 13 13 13 13 13 13 13 12 12 12 12 12 12 12 12 12 11 11 11 11 11 11 11
11 11 11 11 11 11 11 11 12 12 12 12 12 12 12 12 12 13 13 13 13 13 12 12 12 13 12 12 12 12 12 12 12 12 11 11 11 11 11 11 11 11 10
11 11 11 10 10 10 11 11 11 11 12 12 12 12 12 12 12 12 12 12 12 12 12 12 12 12 12 12 12 11 11 11 11 11 11 11 11 11 11 10 10 10 10
10 10 10 10 10 10 10 11 11 11 11 11 11 11 11 11 12 12 12 12 12 12 12 12 12 12 12 11 11 11 11 11 11 11 11 11 10 10 10 10 10 10 10
10 10 10 10 10 10 10 10 10 10 11 11 11 11 11 11 11 11 12 11 11 11 11 11 11 11 11 11 11 11 11 10 10 10 10 10 10 10 10 10 10 10 10
10 10 10 10 10 10 10 10 10 10 10 10 10 10 11 11 11 11 11 11 11 11 11 11 11 11 11 11 11 10 10 10 10 10 10 10 10 10 10 10 10 9 9
10 10 10 10 10 9 9 9 9 9 9 10 10 10 10 11 11 11 11 11 11 11 11 11 11 11 11 10 10 10 10 10 10 10 10 10 9 9 9 9 9 9 9
9 9 9 9 9 9 9 9 9 9 9 9 9 10 10 10 10 10 10 11 11 11 11 11 10 10 10 10 10 9 9 9 9 9 9 9 9 9 9 9 9 9 9
9 9 9 9 9 9 9 9 8 8 9 9 9 9 10 10 10 10 10 10 10 10 10 10 10 10 10 10 10 9 8 8 8 8 9 9 9 9 9 9 9 9 9
9 8 8 8 8 8 8 8 8 8 8 8 8 9 9 9 9 9 10 10 10 10 10 10 10 10 10 9 10 10 9 9 8 8 8 8 8 8 8 8 8 8 8
8 8 8 8 8 8 8 8 8 8 8 8 8 8 8 9 9 9 9 9 9 9 9 9 10 9 10 9 9 9 9 9 9 8 8 8 8 8 8 8 8 8 8
8 8 8 8 8 8 8 7 7 7 7 7 8 8 8 8 8 8 9 9 9 9 9 9 9 9 9 9 9 9 9 9 9 9 8 8 8 8 7 7 7 7 7
8 8 8 7 7 7 7 7 7 7 7 7 7 7 7 8 8 8 8 8 8 9 9 9 9 8 8 8 8 8 9 9 9 9 8 8 7 7 7 7 7 7 7
Wind_Speed
1 2 6 6 5 6 6 7 8 8 8 9 10 10 11 11 11 11 12 12 12 12 12 12 12 13 13 13 14 14 14 14 14 13 13 14 14 14 14 14 13 13 14
3 4 6 6 6 5 6 6 7 7 8 8 9 9 10 11 11 11 11 11 11 11 12 12 12 12 13 13 13 13 13 13 13 13 13 13 14 14 13 13 13 11 13
4 4 6 6 6 5 5 6 6 7 8 8 8 9 10 10 11 11 10 10 10 11 11 12 12 12 12 12 12 12 12 11 12 11 11 10 12 13 12 12 12 12 12
4 4 4 5 5 5 5 5 6 6 7 8 8 8 9 10 11 10 10 10 10 11 11 11 12 12 12 12 12 11 11 11 11 10 9 9 9 12 12 12 12 12 12
3 4 4 5 5 5 5 5 6 6 7 8 8 8 9 10 11 11 10 10 10 10 11 11 11 12 12 11 11 10 10 11 11 11 10 9 9 12 12 12 12 11 11
2 2 4 4 5 5 5 5 5 6 7 8 8 8 9 9 10 10 11 11 11 10 11 11 11 11 11 11 10 10 11 12 12 11 10 9 9 12 12 12 11 11 11
1 1 3 4 4 5 6 5 5 6 7 8 8 9 9 10 10 11 11 11 11 11 10 10 11 11 11 10 10 10 12 12 12 11 10 9 10 11 12 12 12 12 12
2 1 3 4 4 5 6 6 6 5 7 8 8 9 10 10 10 11 11 12 12 12 11 10 10 10 10 10 10 11 11 12 11 11 10 9 10 11 12 12 11 11 11
2 2 1 3 3 4 5 6 6 6 6 7 8 8 9 10 11 11 12 12 12 12 11 10 10 10 10 10 10 11 12 12 11 9 9 9 11 12 12 11 10 11 11
2 2 1 1 2 2 3 6 7 6 6 7 8 8 9 9 10 11 12 12 11 11 11 10 9 9 9 10 11 12 13 12 11 9 9 10 11 11 11 10 10 10 10
2 2 1 0 1 2 3 4 6 6 6 6 7 8 9 8 8 9 11 12 12 11 10 10 10 9 8 9 11 12 11 10 10 8 8 10 10 10 10 10 10 10 10
1 1 1 1 0 1 2 3 3 5 5 5 6 7 7 8 8 8 10 11 11 11 10 9 9 9 8 8 9 10 9 10 9 8 8 10 10 9 10 9 9 10 10
2 1 0 1 0 1 1 2 2 3 4 5 6 7 8 8 8 8 7 7 8 9 8 8 7 7 7 7 8 9 9 9 8 8 8 10 9 9 9 9 10 9 9
2 2 2 1 0 1 2 2 2 2 3 3 5 7 7 5 5 6 5 5 6 6 6 6 5 6 7 8 9 9 8 8 8 8 9 10 9 8 8 9 10 9 8
2 2 2 1 1 1 2 2 2 2 2 3 5 6 8 5 5 5 4 5 5 5 6 5 5 5 5 7 8 8 7 8 9 9 9 9 8 8 7 8 9 9 9
3 3 2 2 1 1 2 3 3 3 3 3 4 6 8 7 6 5 4 4 4 5 6 6 5 5 5 6 6 8 8 9 9 10 10 9 9 8 8 8 9 9 8
4 3 2 2 1 2 2 3 3 2 3 3 3 5 7 8 7 6 4 4 4 5 6 6 6 6 5 5 5 6 7 8 9 9 9 10 9 9 8 8 8 9 8
3 3 2 1 2 2 1 2 2 3 3 3 4 4 6 8 9 6 5 4 5 6 5 4 4 5 5 5 4 4 5 7 8 8 9 9 9 8 8 8 8 8 7
3 3 2 2 2 2 2 2 3 3 2 3 3 4 5 6 8 7 5 5 7 5 4 4 4 5 5 5 5 4 3 4 5 7 7 8 8 8 8 7 7 7 6
1 2 2 2 3 3 3 3 3 3 2 2 2 3 5 5 6 6 5 5 6 4 4 4 4 4 5 5 6 5 3 3 4 4 5 6 7 8 7 7 7 6 6
1 2 2 3 3 4 3 3 2 2 2 1 2 2 4 5 5 5 4 5 5 4 5 6 5 5 4 4 5 4 4 4 3 2 3 4 5 6 7 6 5 5 4
1 2 2 3 3 4 3 2 2 2 2 1 1 2 3 5 5 5 4 4 4 4 5 6 5 3 2 3 4 4 2 1 1 1 1 3 3 4 4 4 4 4 4
2 2 2 3 3 4 5 4 4 3 2 1 1 2 1 3 4 4 5 5 4 4 5 5 6 5 4 1 2 4 4 4 1 1 0 1 2 2 2 3 4 4 4
3 2 2 3 3 4 5 5 6 4 3 2 1 1 2 2 3 4 4 4 4 4 4 5 4 3 5 4 1 1 2 4 4 2 1 0 1 2 3 2 3 4 4
2 2 2 3 3 4 5 6 5 4 3 2 2 3 2 1 2 3 4 4 4 4 4 4 3 3 3 3 3 2 2 2 2 3 2 1 1 1 2 3 4 4 4
1 2 3 3 3 3 4 5 6 6 5 4 3 3 2 1 1 2 3 3 4 4 4 4 4 4 3 3 2 2 3 3 3 3 3 3 2 2 1 2 3 4 5
Wind_Direction
195 179 145 127 121 121 123 125 127 132 126 122 125 127 125 123 122 124 126 126 124 123 121 119 118 115 112 108 105 103 101 98 95 96 97 97 97 98 95 91 88 85 86
170 165 149 137 130 124 128 127 126 139 139 133 132 135 134 131 129 126 126 129 128 125 122 123 120 117 114 112 109 106 102 99 98 95 94 95 97 98 97 96 95 93 90
138 152 150 142 136 127 130 136 138 140 148 143 142 143 144 141 137 133 132 131 132 131 128 127 124 120 117 116 113 110 106 103 104 97 96 96 99 99 98 97 96 94 92
132 136 148 147 144 140 139 147 148 147 152 152 152 150 149 148 144 139 138 136 134 132 133 131 128 124 120 117 114 111 108 107 106 101 97 95 101 103 101 99 96 94 93
117 131 143 147 153 151 152 158 158 158 155 157 155 155 154 154 150 145 145 140 136 135 134 133 132 130 125 120 115 110 105 106 106 106 103 98 100 103 100 97 96 96 95
85 110 149 145 160 161 164 166 170 165 163 159 157 158 161 159 154 150 147 145 141 138 137 136 136 133 128 122 115 108 105 108 107 105 103 101 105 105 100 96 97 97 96
87 94 144 148 154 167 171 172 173 170 164 159 159 161 163 162 157 153 149 148 146 143 144 141 140 136 131 123 114 107 106 109 107 104 101 101 105 105 101 97 96 96 92
117 114 135 142 153 162 172 174 176 171 167 160 161 165 165 165 161 155 154 153 149 149 148 145 140 139 135 124 113 110 107 111 108 104 101 102 108 107 103 99 98 96 93
81 88 95 124 141 160 174 174 175 172 167 161 156 158 163 165 161 156 155 154 150 148 145 141 139 140 134 121 113 111 111 114 108 106 105 106 111 110 106 104 102 100 95
66 79 46 101 117 136 166 174 167 167 165 161 153 146 146 152 156 154 151 152 150 146 143 141 139 137 132 121 117 115 113 110 105 103 104 111 115 113 109 106 105 102 97
37 39 33 23 127 140 151 165 166 162 158 156 154 144 140 140 140 145 148 148 149 146 145 141 136 133 124 119 118 116 112 108 104 101 108 115 117 116 113 109 106 105 100
322 330 4 325 174 150 152 147 155 158 155 156 155 149 146 141 136 137 138 140 144 145 146 143 135 124 115 109 111 113 110 106 101 102 109 114 117 116 115 113 112 107 103
228 230 249 270 240 165 139 143 140 152 153 150 150 150 146 137 133 131 133 133 135 138 136 132 124 120 117 115 111 111 110 104 103 105 110 112 118 120 119 118 115 111 106
237 238 243 248 248 208 163 156 153 148 152 152 152 150 145 137 132 134 133 135 135 137 131 128 125 126 121 120 118 114 111 106 104 101 108 111 115 120 122 122 117 112 108
225 239 256 229 218 225 172 164 156 154 159 158 157 157 152 146 148 141 137 138 138 141 140 134 128 124 118 117 119 119 116 110 106 102 100 102 108 116 119 124 120 114 110
225 226 224 220 201 208 192 173 165 148 145 148 155 160 158 154 149 146 142 140 141 146 146 142 135 125 120 118 113 114 114 113 105 101 96 95 96 103 109 114 117 115 111
223 207 202 204 170 179 190 174 148 132 136 138 144 153 157 153 150 146 144 144 144 144 134 128 119 113 112 113 113 113 113 112 110 104 101 97 93 90 92 105 110 112 109
226 202 197 182 149 142 155 157 134 121 122 125 125 129 141 147 148 144 147 149 145 139 130 131 133 120 113 116 115 111 109 109 111 110 108 104 99 93 92 94 106 109 108
215 192 177 163 147 137 120 121 123 116 112 114 120 122 133 138 145 142 148 146 143 137 135 140 135 133 126 121 117 103 99 110 115 117 113 110 108 105 101 99 102 105 106
211 172 166 158 147 131 119 111 103 104 99 94 100 117 131 132 137 136 140 143 137 139 139 133 131 127 133 131 115 93 73 85 102 117 125 121 118 115 110 107 106 106 105
96 129 138 140 138 129 126 124 127 135 124 107 99 110 124 128 134 134 138 141 137 143 150 142 129 131 130 128 107 86 46 51 75 103 119 123 125 124 119 114 111 105 95
188 160 151 152 143 140 144 130 127 125 115 89 49 72 112 126 133 140 139 143 139 132 135 140 135 131 135 137 130 126 111 39 11 65 128 144 138 130 131 135 130 124 112
184 179 172 158 139 137 131 116 104 84 72 68 61 58 76 117 131 137 145 143 143 144 153 152 147 140 153 157 143 147 154 188 188 323 219 159 159 146 149 153 157 157 141
197 180 165 153 144 140 137 138 139 142 148 165 159 113 72 103 121 127 138 140 142 140 153 163 151 144 150 162 168 147 141 145 151 164 285 259 187 178 182 173 166 162 155
171 162 161 149 154 147 147 152 149 146 141 125 115 109 98 101 126 134 135 139 143 147 152 154 140 144 146 160 171 161 125 99 116 148 183 217 255 228 202 187 177 171 167
137 143 137 143 150 151 152 153 154 155 149 144 144 137 138 142 124 136 143 147 146 148 157 160 151 156 155 147 153 167 161 160 168 156 169 185 209 242 227 190 183 186 184
Height
1515 1516 1517 1517 1517 1518 1519 1519 1520 1521 1522 1522 1523 1524 1525 1526 1526 1527 1527 1528 1529 1529 1530 1530 1531 1531 1532 1533 1533 1534 1534 1534 1535 1535 1536 1536 1537 1537 1537 1538 1538 1538 1538
1514 1515 1516 1517 1517 1518 1518 1519 1520 1520 1521 1522 1523 1524 1525 1525 1526 1527 1527 1528 1529 1529 1530 1530 1531 1532 1532 1533 1534 1534 1535 1535 1536 1536 1537 1537 1538 1538 1539 1539 1539 1539 1540
1513 1514 1515 1516 1516 1517 1518 1518 1519 1520 1521 1521 1522 1523 1524 1525 1526 1526 1527 1527 1528 1529 1530 1531 1531 1532 1533 1533 1534 1535 1535 1536 1536 1537 1538 1538 1539 1539 1540 1540 1540 1541 1541
1513 1513 1514 1515 1515 1516 1517 1517 1518 1519 1520 1520 1521 1522 1523 1524 1525 1525 1526 1527 1528 1529 1530 1531 1531 1532 1533 1534 1534 1535 1536 1536 1537 1538 1538 1539 1540 1540 1541 1541 1541 1541 1542
1512 1512 1513 1514 1514 1515 1516 1516 1517 1517 1518 1519 1520 1521 1522 1523 1524 1525 1526 1527 1528 1529 1529 1530 1532 1532 1533 1534 1535 1535 1536 1537 1538 1538 1539 1540 1540 1541 1541 1542 1542 1542 1542
1511 1511 1512 1512 1513 1513 1514 1515 1515 1516 1517 1518 1519 1520 1521 1522 1523 1524 1525 1526 1527 1528 1529 1530 1531 1533 1533 1534 1535 1535 1536 1537 1538 1539 1540 1541 1541 1542 1542 1542 1542 1543 1543
1510 1510 1510 1511 1511 1512 1512 1513 1514 1514 1515 1516 1517 1518 1520 1521 1522 1523 1524 1525 1526 1528 1529 1530 1531 1532 1533 1534 1535 1536 1536 1537 1538 1539 1540 1541 1542 1542 1543 1543 1543 1543 1544
1508 1508 1508 1509 1509 1510 1510 1511 1512 1512 1513 1514 1515 1517 1518 1519 1520 1521 1523 1524 1525 1527 1528 1530 1531 1532 1533 1534 1535 1536 1537 1538 1539 1540 1541 1541 1542 1543 1543 1543 1544 1544 1544
1506 1506 1506 1506 1507 1508 1508 1509 1510 1510 1511 1512 1513 1515 1516 1517 1519 1520 1521 1523 1524 1526 1527 1529 1530 1532 1533 1534 1535 1536 1537 1538 1539 1540 1541 1541 1542 1543 1543 1543 1544 1544 1544
1504 1504 1503 1503 1504 1505 1506 1507 1508 1508 1509 1510 1511 1513 1514 1516 1517 1519 1520 1522 1524 1525 1527 1528 1530 1531 1532 1533 1534 1535 1537 1538 1539 1540 1541 1541 1542 1543 1543 1543 1544 1544 1544
1502 1501 1501 1501 1502 1503 1503 1504 1505 1506 1507 1508 1509 1511 1512 1514 1515 1517 1519 1521 1522 1524 1526 1528 1529 1530 1532 1533 1534 1535 1537 1538 1539 1540 1540 1541 1542 1542 1543 1543 1543 1543 1543
1499 1499 1499 1499 1500 1500 1501 1502 1502 1504 1505 1506 1507 1508 1510 1512 1514 1515 1518 1520 1521 1523 1525 1527 1528 1529 1531 1532 1533 1535 1536 1537 1538 1539 1540 1541 1542 1542 1542 1543 1543 1543 1543
1497 1496 1496 1496 1496 1497 1498 1499 1500 1501 1502 1503 1505 1506 1508 1510 1512 1514 1516 1518 1520 1522 1524 1526 1527 1528 1530 1531 1533 1534 1536 1537 1538 1539 1540 1541 1541 1542 1542 1542 1543 1543 1543
1494 1494 1494 1494 1494 1495 1496 1497 1497 1498 1500 1501 1503 1504 1506 1508 1510 1512 1514 1516 1518 1520 1522 1524 1526 1528 1529 1531 1532 1534 1535 1536 1537 1538 1539 1540 1541 1541 1542 1542 1542 1543 1543
1491 1491 1491 1491 1491 1492 1493 1494 1495 1496 1497 1498 1500 1502 1504 1506 1508 1510 1512 1515 1517 1519 1521 1522 1525 1527 1528 1530 1531 1532 1534 1535 1536 1537 1538 1539 1540 1541 1541 1542 1542 1542 1542
1489 1488 1489 1489 1489 1490 1491 1492 1492 1494 1495 1496 1498 1500 1502 1504 1506 1508 1510 1512 1515 1517 1519 1521 1523 1525 1527 1529 1530 1531 1533 1534 1535 1536 1537 1538 1539 1540 1541 1541 1541 1541 1541
1486 1486 1486 1486 1487 1487 1488 1489 1490 1491 1493 1494 1496 1498 1500 1502 1504 1506 1508 1511 1513 1515 1518 1520 1522 1524 1526 1527 1529 1530 1532 1533 1534 1535 1536 1537 1538 1539 1539 1540 1540 1540 1540
1482 1482 1483 1483 1484 1485 1486 1486 1488 1489 1491 1492 1494 1495 1498 1501 1503 1505 1507 1509 1511 1514 1516 1517 1519 1522 1524 1526 1527 1529 1530 1532 1533 1534 1535 1536 1537 1537 1538 1538 1539 1539 1539
1480 1480 1480 1481 1481 1482 1483 1484 1486 1487 1489 1491 1492 1494 1496 1498 1501 1503 1505 1507 1509 1512 1514 1516 1518 1520 1521 1523 1525 1527 1529 1530 1531 1532 1533 1534 1535 1536 1537 1537 1537 1538 1538
1477 1477 1477 1478 1479 1480 1481 1482 1483 1486 1488 1490 1491 1492 1494 1496 1499 1501 1503 1505 1507 1510 1511 1514 1516 1518 1520 1522 1523 1526 1527 1528 1530 1531 1532 1533 1534 1534 1535 1535 1536 1536 1536
1476 1475 1475 1476 1476 1478 1479 1480 1482 1484 1486 1488 1489 1490 1492 1495 1497 1499 1501 1503 1505 1507 1509 1511 1513 1515 1517 1519 1521 1523 1525 1527 1528 1529 1530 1531 1531 1532 1533 1533 1534 1534 1534
1474 1474 1474 1474 1475 1476 1477 1479 1481 1483 1484 1486 1488 1489 1491 1493 1495 1497 1499 1501 1503 1505 1506 1508 1511 1512 1514 1517 1518 1520 1523 1526 1526 1527 1528 1529 1529 1530 1531 1532 1532 1532 1532
1473 1473 1473 1473 1474 1475 1476 1478 1480 1481 1483 1484 1486 1487 1489 1491 1493 1495 1497 1499 1501 1502 1504 1506 1508 1509 1511 1514 1516 1517 1519 1520 1523 1525 1525 1526 1527 1528 1529 1529 1530 1530 1530
1472 1472 1472 1472 1473 1474 1475 1476 1477 1479 1481 1482 1484 1486 1487 1489 1491 1493 1495 1497 1499 1501 1502 1504 1506 1508 1509 1511 1513 1514 1516 1517 1519 1521 1523 1523 1524 1525 1526 1527 1527 1528 1528
1470 1471 1471 1472 1472 1473 1474 1475 1476 1478 1480 1481 1482 1484 1485 1487 1489 1491 1493 1495 1497 1499 1501 1502 1503 1505 1507 1508 1510 1511 1512 1514 1515 1517 1518 1520 1522 1522 1523 1524 1524 1525 1525
1469 1470 1470 1471 1472 1472 1473 1474 1475 1476 1477 1479 1480 1482 1483 1485 1487 1489 1492 1493 1495 1496 1498 1500 1501 1503 1505 1506 1508 1509 1510 1511 1512 1513 1514 1516 1518 1519 1520 1521 1521 1522 1522